FW7261 Weather Reports


time (UTC)temp
C
wind
direction
speed
KPH
gust
KPH
rain 1hr
cm
rain 24hr
cm
rain mn
cm
humidity
%
barometer
mb
20260502231111 15 263 0.0 0.0 0.00 0.00 0.00 74 1015.9
20260502230111 16 263 0.0 0.0 0.00 0.00 0.00 74 1016.0
20260502225111 16 263 0.0 0.0 0.00 0.00 0.00 73 1016.0
20260502224111 15 263 0.0 0.0 0.00 0.00 0.00 73 1016.1
20260502223111 16 263 0.0 0.0 0.00 0.00 0.00 72 1016.1
20260502222111 16 263 0.0 0.0 0.00 0.00 0.00 70 1016.1
20260502220111 16 248 0.0 0.0 0.00 0.00 0.00 70 1016.1
20260502215113 16 248 0.0 0.0 0.00 0.00 0.00 70 1016.0
20260502214113 16 248 0.0 0.0 0.00 0.00 0.00 68 1016.1
20260502213113 17 248 0.0 0.0 0.00 0.00 0.00 67 1016.1
20260502212113 18 248 0.0 0.0 0.00 0.00 0.00 64 1016.0
20260502211113 18 248 0.0 3.2 0.00 0.00 0.00 63 1015.8
20260502205112 18 266 0.0 0.0 0.00 0.00 0.00 65 1015.9
20260502204112 17 266 0.0 0.0 0.00 0.00 0.00 67 1015.9
20260502203112 18 266 0.0 0.0 0.00 0.00 0.00 65 1015.8
20260502202112 18 267 0.0 0.0 0.00 0.00 0.00 63 1015.8
20260502201112 19 266 0.0 0.0 0.00 0.00 0.00 62 1015.7
20260502200112 19 254 0.0 0.0 0.00 0.00 0.00 61 1015.7
20260502194112 20 253 0.0 0.0 0.00 0.00 0.00 61 1015.5
20260502192112 21 253 0.0 0.0 0.00 0.00 0.00 59 1015.5
20260502191112 22 253 0.0 0.0 0.00 0.00 0.00 54 1015.5
20260502190112 22 253 0.0 0.0 0.00 0.00 0.00 53 1015.4
20260502185112 22 253 0.0 0.0 0.00 0.00 0.00 52 1015.3
20260502184112 23 253 0.0 0.0 0.00 0.00 0.00 50 1015.3
20260502182111 24 276 0.0 0.0 0.00 0.00 0.00 45 1015.1
20260502181111 25 276 0.0 0.0 0.00 0.00 0.00 44 1015.1
20260502180111 25 278 0.0 1.6 0.00 0.00 0.00 43 1015.1
20260502170110 26 255 0.0 0.0 0.00 0.00 0.00 35 1015.2
20260502163110 26 255 0.0 0.0 0.00 0.00 0.00 36 1015.3
20260502162110 27 256 3.2 9.7 0.00 0.00 0.00 35 1015.5
20260502161110 27 247 0.0 4.8 0.00 0.00 0.00 34 1015.8
20260502160115 27 244 3.2 11.3 0.00 0.00 0.00 33 1015.8
20260502151114 27 249 1.6 8.0 0.00 0.00 0.00 34 1016.3
20260502150114 28 260 4.8 11.3 0.00 0.00 0.00 35 1016.4
20260502130113 27 249 3.2 8.0 0.00 0.00 0.00 39 1018.4
20260502123112 26 232 1.6 9.7 0.00 0.00 0.00 41 1018.9
20260502122112 26 214 3.2 12.9 0.00 0.00 0.00 41 1019.0
20260502121112 25 254 6.4 19.3 0.00 0.00 0.00 42 1019.2
20260502120112 26 249 6.4 12.9 0.00 0.00 0.00 42 1019.2
20260502115112 26 252 3.2 8.0 0.00 0.00 0.00 43 1019.4
20260502114112 25 255 3.2 9.7 0.00 0.00 0.00 43 1019.5
20260502113112 25 242 6.4 16.1 0.00 0.00 0.00 43 1019.8
20260502112112 25 280 4.8 14.5 0.00 0.00 0.00 45 1019.9
20260502111112 25 263 1.6 9.7 0.00 0.00 0.00 46 1019.9
20260502105111 24 264 4.8 14.5 0.00 0.00 0.00 47 1020.2
20260502104112 24 227 6.4 11.3 0.00 0.00 0.00 46 1020.4
20260502103112 23 247 3.2 11.3 0.00 0.00 0.00 48 1020.5
20260502101112 23 229 3.2 9.7 0.00 0.00 0.00 47 1020.7
20260502100111 22 247 8.0 14.5 0.00 0.00 0.00 47 1020.9
20260502091111 22 256 9.7 16.1 0.00 0.00 0.00 47 1021.4
20260502080110 18 244 0.0 1.6 0.00 0.00 0.00 53 1022.0
20260502071114 16 291 0.0 0.0 0.00 0.00 0.00 59 1022.3
20260502070114 16 350 0.0 0.0 0.00 0.00 0.00 62 1022.1
20260502065114 16 36 0.0 0.0 0.00 0.00 0.00 61 1022.4
20260502064114 15 250 0.0 0.0 0.00 0.00 0.00 61 1022.5
20260502063114 14 250 0.0 0.0 0.00 0.00 0.00 67 1022.5
20260502062114 13 250 0.0 0.0 0.00 0.00 0.00 68 1022.4
20260502061114 13 250 0.0 0.0 0.00 0.00 0.00 69 1022.3
20260502055114 11 250 0.0 0.0 0.00 0.00 0.00 73 1022.5
20260502053114 10 250 0.0 0.0 0.00 0.00 0.00 75 1022.4
20260502052113 10 80 0.0 0.0 0.00 0.00 0.00 76 1022.5
20260502051113 10 79 0.0 0.0 0.00 0.00 0.00 76 1022.4
20260502050113 10 79 0.0 0.0 0.00 0.00 0.00 76 1022.2
20260502045113 10 80 0.0 1.6 0.00 0.00 0.00 77 1022.1
20260502044113 8 80 0.0 1.6 0.00 0.00 0.00 80 1022.2
20260502043113 8 80 0.0 0.0 0.00 0.00 0.00 82 1022.1
20260502042113 7 80 0.0 0.0 0.00 0.00 0.00 82 1022.0
20260502041113 7 80 0.0 0.0 0.00 0.00 0.00 82 1022.3
20260502035113 7 326 0.0 0.0 0.00 0.00 0.00 82 1022.3
20260502034113 8 325 0.0 0.0 0.00 0.00 0.00 82 1022.3
20260502033112 8 325 0.0 0.0 0.00 0.00 0.00 81 1022.4
20260502032112 8 325 0.0 0.0 0.00 0.00 0.00 80 1022.4
20260502031112 8 325 0.0 0.0 0.00 0.00 0.00 80 1022.3
20260502030112 8 343 0.0 0.0 0.00 0.00 0.00 80 1022.4
20260502025112 8 343 0.0 0.0 0.00 0.00 0.00 80 1022.2
20260502024112 8 344 0.0 0.0 0.00 0.00 0.00 81 1022.3
20260502023112 8 344 0.0 0.0 0.00 0.00 0.00 81 1022.2
20260502022112 8 344 0.0 0.0 0.00 0.00 0.00 80 1022.2
20260502021112 8 320 0.0 0.0 0.00 0.00 0.00 81 1022.3
20260502015111 8 308 0.0 0.0 0.00 0.00 0.00 80 1022.3
20260502014111 8 308 0.0 0.0 0.00 0.00 0.00 81 1022.3
20260502013111 8 308 0.0 0.0 0.00 0.00 0.00 79 1022.4
20260502012111 8 308 0.0 0.0 0.00 0.00 0.00 78 1022.4
20260502011111 8 308 0.0 0.0 0.00 0.00 0.00 77 1022.4
20260502010111 8 308 0.0 0.0 0.00 0.00 0.00 76 1022.4
20260502004111 9 308 0.0 0.0 0.00 0.00 0.00 75 1022.4
20260502003111 9 308 0.0 0.0 0.00 0.00 0.00 73 1022.4
20260502001111 10 308 0.0 0.0 0.00 0.00 0.00 73 1022.4
20260502000111 10 308 0.0 0.0 0.00 0.00 0.00 74 1022.5
20260501234110 10 308 0.0 0.0 0.00 0.00 0.00 77 1022.5
20260501233110 10 282 0.0 0.0 0.00 0.00 0.00 77 1022.7